This demonstration page uses our WeatherBlox Daily Observations layout. Learn more.

Left ArrowRight Arrow

41.86663, -103.66717

Hourly Observations for January 29, 2017

Temp ( °F °C ) Dew Point ( °F °C ) Humidity (%) Winds ( mph kmh ) Pressure ( in mb ) Visibility ( mi km ) Precip ( " mm )
12:53 am 00:53 Clear 29 -1.7 17 -8.3 61 61 WNW 10 17 30.31 1026 10 16 0.00 0.00
1:53 am 01:53 Clear 26 -3.3 16 -8.9 66 66 WNW 10 17 30.31 1026 10 16 0.00 0.00
2:53 am 02:53 Clear 23 -5 15 -9.4 72 72 N 8 13 30.31 1026 10 16 0.00 0.00
3:53 am 03:53 Clear 31 -0.6 18 -7.8 59 59 WNW 15 24 30.28 1025 10 16 0.00 0.00
4:53 am 04:53 Clear 32 0 18 -7.8 56 56 WNW 14 22 30.29 1026 10 16 0.00 0.00
5:53 am 05:53 Clear 29 -1.7 17 -8.3 61 61 WNW 14 22 30.29 1026 10 16 0.00 0.00
6:53 am 06:53 Clear 29 -1.7 17 -8.3 61 61 WNW 13 20 30.32 1027 10 16 0.00 0.00
7:53 am 07:53 Sunny 30 -1.1 18 -7.8 61 61 WNW 12 19 30.33 1027 10 16 0.00 0.00
8:53 am 08:53 Sunny 34 1.1 19 -7.2 54 54 WNW 14 22 30.33 1027 10 16 0.00 0.00
9:53 am 09:53 Sunny 40 4.4 21 -6.1 47 47 WNW 14 22 30.33 1027 10 16 0.00 0.00
10:53 am 10:53 Sunny 44 6.7 23 -5 43 43 WNW 14 22 30.31 1026 10 16 0.00 0.00
11:53 am 11:53 Sunny 46 7.8 24 -4.4 42 42 W 13 20 30.29 1026 10 16 0.00 0.00
12:53 pm 12:53 Sunny 47 8.3 26 -3.3 44 44 W 13 20 30.25 1024 10 16 0.00 0.00
1:53 pm 13:53 Sunny 49 9.4 26 -3.3 41 41 W 13 20 30.24 1024 10 16 0.00 0.00
2:53 pm 14:53 Sunny 48 8.9 26 -3.3 42 42 W 16 26 30.24 1024 10 16 0.00 0.00
3:53 pm 15:53 Sunny 47 8.3 24 -4.4 41 41 WNW 20 31 30.21 1023 10 16 0.00 0.00
4:53 pm 16:53 Sunny 43 6.1 25 -3.9 49 49 W 13 20 30.24 1024 10 16 0.00 0.00
5:53 pm 17:53 Clear 40 4.4 24 -4.4 53 53 WNW 12 19 30.26 1025 10 16 0.00 0.00
6:53 pm 18:53 Clear 38 3.3 22 -5.6 52 52 WNW 10 17 30.27 1025 10 16 0.00 0.00
7:53 pm 19:53 Clear 37 2.8 21 -6.1 52 52 WNW 10 17 30.25 1024 10 16 0.00 0.00
8:53 pm 20:53 Clear 36 2.2 22 -5.6 57 57 NW 10 17 30.22 1023 10 16 0.00 0.00
9:53 pm 21:53 Clear 36 2.2 21 -6.1 55 55 WNW 9 15 30.18 1022 10 16 0.00 0.00
10:53 pm 22:53 Clear 37 2.8 20 -6.7 50 50 WNW 12 19 30.16 1021 10 16 0.00 0.00
11:53 pm 23:53 Clear 38 3.3 20 -6.7 48 48 WNW 14 22 30.13 1020 10 16 0.00 0.00

Powered by AerisWeather